Skip Page Navigation
NASA JPL Caltech
NASA Logo - Jet Propulsion Laboratory + View the NASA Portal
+ Near-Earth Object (NEO) Program
Search JPL
JPL Home Earth Solar System Stars & Galaxies Technology
JPL Solar System Dynamics
BODIES ORBITS EPHEMERIDES TOOLS PHYSICAL DATA DISCOVERY FAQ SITE MAP
JPL Small-Body Database Browser
Search: [ help ]  
199801 (2007 AE12)
Classification: Apollo [NEO, PHA]          SPK-ID: 2199801
Ephemeris | Orbit Diagram | Orbital Elements | Physical Parameters | Discovery Circumstances | Close-Approach Data ]

[ hide orbit diagram ]
Orbit Diagram
Note: Make sure you have Java enabled on your browser to see the applet. This applet is provided as a 3D orbit visualization tool. The applet was implemented using 2-body methods, and hence should not be used for determining accurate long-term trajectories (over several years or decades) or planetary encounter circumstances. For accurate long-term ephemerides, please instead use our Horizons system.
Orbit Viewer

Additional Notes: the orbits shown in the applet are color coded. The planets are white lines, and the asteroid/comet is a blue line. The bright white line indicates the portion of the orbit that is above the ecliptic plane, and the darker portion is below the ecliptic plane. Likewise for the asteroid/comet orbit, the light blue indicates the portion above the ecliptic plane, and the dark blue the portion below the ecliptic plane.

Orbit Viewer applet originally written and kindly provided by Osamu Ajiki (AstroArts), and further modified by Ron Baalke (JPL).


Orbital Elements at Epoch 2456400.5 (2013-Apr-18.0) TDB
Reference: JPL 34 (heliocentric ecliptic J2000)
 Element Value Uncertainty (1-sigma)   Units 
e .5693027630058295 7.8928e-08  
a 1.684808373193633 2.4417e-08 AU
q .7256423111991408 1.2634e-07 AU
i 2.284959445065061 1.1736e-05 deg
node 245.7517209283382 0.0001048 deg
peri 86.63855558161465 0.00010624 deg
M 34.97730109853646 1.7657e-05 deg
tp 2456322.891732226306
(2013-Jan-30.39173223)
3.7684e-05 JED
period 798.7745057808002
2.19
1.7364e-05
4.754e-08
d
yr
n .4506903980968958 9.7974e-09 deg/d
Q 2.643974435188124 3.8317e-08 AU
  Orbit Determination Parameters
   # obs. used (total)      139  
   data-arc span      4995 days (13.68 yr)  
   first obs. used      1995-05-29  
   last obs. used      2009-01-30  
   planetary ephem.      DE405  
   SB-pert. ephem.      SB405-CPV-2  
   condition code      0  
   fit RMS      .7058  
   data source      ORB  
   producer      Otto Matic  
   solution date      2013-Apr-29 15:40:32  

Additional Information
 Earth MOID = .00631762 AU 
 T_jup = 4.023 
[ show covariance matrix ]

Ephemeris | Orbit Diagram | Orbital Elements | Physical Parameters | Discovery Circumstances | Close-Approach Data ]

Physical Parameter Table
Parameter Symbol Value Units Sigma Reference Notes
absolute magnitude H 19.225 mag .51776 34 autocmod 2.5c

199801 (2007 AE12)          Discovered 2007-Jan-10 by Mt. Lemmon Survey at Mount Lemmon (G96)
Reference: 20081113/Numbers.arcLast Updated: 2008-11-17

[ show close-approach data ]
Ephemeris | Orbit Diagram | Orbital Elements | Physical Parameters | Discovery Circumstances | Close-Approach Data ]
ABOUT SSD CREDITS/AWARDS PRIVACY/COPYRIGHT GLOSSARY LINKS
FirstGov 2013-May-19 04:13 UT
(server date/time)  
NASA Home Page
Site Manager:   Donald K. Yeomans
Webmaster  Alan B. Chamberlin